Location: Ravensburg
(48.5621°N, 13.4088°E)
Time: 15:57:37
(UTC+01:00)

ISS - Visible Passes

Search period start: 23 November 2017 00:00
Search period end: 03 December 2017 00:00
Orbit: 402 x 407 km, 51.6° (Epoch: 24 November)

Date Brightness Start Highest point End Pass type
(mag) Time Alt. Az. Time Alt. Az. Time Alt. Az.
27 Nov -0.6 19:07:42 10° SW 19:07:51 11° SW 19:07:51 11° SW visible
28 Nov -2.2 18:15:48 10° SSW 18:17:50 24° SSE 18:17:50 24° SSE visible
29 Nov -1.8 17:24:18 10° S 17:26:26 16° SE 17:27:45 13° ESE visible
29 Nov -1.3 18:59:12 10° WSW 19:00:25 21° WSW 19:00:25 21° WSW visible
30 Nov -3.5 18:06:58 10° SW 18:10:09 49° SSE 18:10:15 49° SE visible
01 Dec -2.6 17:14:55 10° SSW 17:17:51 31° SE 17:20:01 15° E visible
01 Dec -1.8 18:50:54 10° W 18:52:40 29° W 18:52:40 29° W visible
02 Dec -3.9 17:58:27 10° WSW 18:01:45 87° SSE 18:02:23 55° ENE visible
